QPF
0.00 0.00 0.00 0.00 0.00 0.00 0.00 0.00 0.00 0.00 0.00 0.00 0.00 0.00 0.00 0.00 0.00 0.00 0.00 0.00 0.00 0.00 0.00 0.00 0.00 0.00 0.00 0.00 0.01 0.01 0.01 0.02 0.02 0.02 0.02 0.03 0.04 0.04
0.00 0.00 0.00 0.00 0.00 0.00 0.00 0.00 0.00 0.00 0.00 0.00 0.00 0.00 0.00 0.00 0.00 0.00 0.00 0.00 0.00 0.00 0.00 0.00 0.00 0.00 0.00 0.00 0.01 0.01 0.01 0.01 0.02 0.02 0.02 0.03 0.04 0.04
0.00 0.00 0.00 0.00 0.00 0.00 0.00 0.00 0.00 0.00 0.00 0.00 0.00 0.00 0.00 0.00 0.00 0.00 0.00 0.00 0.00 0.00 0.00 0.00 0.00 0.00 0.00 0.00 0.00 0.01 0.01 0.01 0.01 0.02 0.02 0.03 0.03 0.04
0.00 0.00 0.00 0.00 0.00 0.00 0.00 0.00 0.00 0.00 0.00 0.00 0.00 0.00 0.00 0.00 0.00 0.00 0.00 0.00 0.00 0.00 0.00 0.00 0.00 0.00 0.00 0.00 0.00 0.00 0.01 0.01 0.01 0.02 0.02 0.02 0.03 0.03
0.00 0.00 0.00 0.00 0.00 0.00 0.00 0.00 0.00 0.00 0.00 0.00 0.00 0.00 0.00 0.00 0.00 0.00 0.00 0.00 0.00 0.00 0.00 0.00 0.00 0.00 0.00 0.00 0.00 0.00 0.00 0.01 0.01 0.01 0.01 0.02 0.02 0.03
0.00 0.00 0.00 0.00 0.00 0.00 0.00 0.00 0.00 0.00 0.00 0.00 0.00 0.00 0.00 0.00 0.00 0.00 0.00 0.00 0.00 0.00 0.00 0.00 0.00 0.00 0.00 0.00 0.00 0.00 0.01 0.01 0.01 0.01 0.01 0.02 0.02 0.03
0.00 0.00 0.00 0.00 0.00 0.00 0.00 0.00 0.00 0.00 0.00 0.00 0.00 0.00 0.00 0.00 0.00 0.00 0.00 0.00 0.00 0.00 0.00 0.00 0.00 0.00 0.00 0.00 0.00 0.00 0.01 0.01 0.01 0.01 0.01 0.02 0.03 0.02
0.00 0.00 0.00 0.00 0.00 0.00 0.00 0.00 0.00 0.00 0.00 0.00 0.00 0.00 0.00 0.00 0.00 0.00 0.00 0.00 0.00 0.00 0.00 0.00 0.00 0.00 0.00 0.00 0.00 0.00 0.01 0.02 0.01 0.01 0.02 0.02 0.03 0.02
0.00 0.00 0.00 0.00 0.00 0.00 0.00 0.00 0.00 0.00 0.00 0.00 0.00 0.00 0.00 0.00 0.01 0.01 0.01 0.01 0.00 0.00 0.00 0.00 0.00 0.00 0.00 0.00 0.00 0.00 0.01 0.02 0.01 0.01 0.02 0.02 0.03 0.04
0.00 0.00 0.00 0.00 0.00 0.00 0.00 0.00 0.00 0.00 0.00 0.00 0.00 0.00 0.00 0.00 0.01 0.01 0.01 0.00 0.00 0.00 0.00 0.00 0.00 0.00 0.00 0.00 0.00 0.00 0.01 0.01 0.01 0.01 0.02 0.02 0.03 0.03
0.00 0.00 0.00 0.00 0.00 0.00 0.00 0.00 0.00 0.00 0.00 0.00 0.00 0.00 0.00 0.00 0.00 0.00 0.00 0.00 0.00 0.00 0.00 0.00 0.00 0.00 0.00 0.00 0.00 0.00 0.01 0.01 0.01 0.01 0.01 0.02 0.02 0.01
0.00 0.00 0.00 0.00 0.00 0.00 0.00 0.00 0.00 0.00 0.00 0.00 0.00 0.00 0.00 0.00 0.00 0.00 0.00 0.01 0.01 0.00 0.00 0.00 0.00 0.00 0.00 0.00 0.00 0.00 0.00 0.00 0.00 0.01 0.01 0.01 0.01 0.01
0.00 0.00 0.00 0.00 0.00 0.00 0.00 0.00 0.00 0.00 0.00 0.00 0.00 0.00 0.00 0.00 0.00 0.00 0.00 0.01 0.01 0.01 0.00 0.01 0.01 0.01 0.01 0.00 0.00 0.00 0.00 0.00 0.00 0.00 0.00 0.00 0.00 0.01
0.00 0.00 0.00 0.00 0.00 0.00 0.00 0.00 0.00 0.00 0.00 0.00 0.00 0.00 0.00 0.00 0.00 0.00 0.00 0.00 0.00 0.01 0.01 0.01 0.01 0.01 0.01 0.01 0.00 0.00 0.00 0.00 0.00 0.00 0.00 0.00 0.00 0.00
0.00 0.00 0.00 0.00 0.00 0.00 0.00 0.00 0.00 0.00 0.00 0.00 0.00 0.00 0.00 0.00 0.00 0.00 0.00 0.00 0.00 0.00 0.00 0.00 0.01 0.01 0.01 0.01 0.01 0.00 0.00 0.00 0.00 0.00 0.00 0.00 0.00 0.00
0.01 0.01 0.00 0.00 0.00 0.00 0.00 0.00 0.00 0.00 0.00 0.00 0.00 0.00 0.00 0.00 0.00 0.00 0.00 0.00 0.00 0.00 0.00 0.00 0.00 0.01 0.01 0.01 0.01 0.01 0.00 0.00 0.00 0.00 0.00 0.00 0.00 0.00
0.01 0.01 0.01 0.00 0.00 0.00 0.00 0.00 0.00 0.00 0.00 0.00 0.00 0.00 0.00 0.00 0.00 0.00 0.00 0.00 0.00 0.00 0.00 0.00 0.00 0.00 0.00 0.00 0.01 0.00 0.00 0.00 0.00 0.00 0.00 0.00 0.00 0.00
0.01 0.01 0.00 0.00 0.00 0.00 0.00 0.00 0.00 0.00 0.00 0.00 0.00 0.00 0.00 0.00 0.00 0.00 0.00 0.00 0.00 0.00 0.00 0.00 0.00 0.00 0.00 0.00 0.00 0.00 0.00 0.00 0.01 0.01 0.00 0.00 0.00 0.00
0.01 0.00 0.00 0.00 0.00 0.00 0.00 0.00 0.00 0.00 0.00 0.00 0.00 0.00 0.00 0.00 0.00 0.00 0.00 0.00 0.00 0.00 0.00 0.00 0.00 0.00 0.00 0.00 0.00 0.00 0.00 0.01 0.01 0.01 0.01 0.00 0.00 0.00
0.01 0.00 0.00 0.00 0.00 0.00 0.00 0.00 0.00 0.00 0.00 0.00 0.00 0.00 0.00 0.00 0.00 0.00 0.00 0.00 0.00 0.00 0.00 0.00 0.00 0.00 0.00 0.00 0.00 0.00 0.00 0.01 0.01 0.01 0.01 0.00 0.00 0.00
0.00 0.00 0.00 0.00 0.00 0.00 0.00 0.00 0.00 0.00 0.00 0.00 0.00 0.00 0.00 0.00 0.00 0.00 0.00 0.00 0.00 0.00 0.00 0.00 0.00 0.00 0.00 0.00 0.00 0.00 0.00 0.00 0.01 0.01 0.01 0.00 0.00 0.00
0.00 0.00 0.00 0.00 0.00 0.00 0.00 0.00 0.00 0.00 0.00 0.00 0.00 0.00 0.00 0.00 0.00 0.00 0.00 0.00 0.00 0.00 0.00 0.00 0.00 0.00 0.00 0.00 0.00 0.00 0.00 0.00 0.00 0.00 0.00 0.01 0.01 0.01
0.00 0.00 0.00 0.00 0.00 0.00 0.00 0.00 0.00 0.00 0.00 0.00 0.00 0.00 0.00 0.00 0.00 0.00 0.00 0.00 0.00 0.00 0.00 0.00 0.00 0.00 0.00 0.00 0.00 0.00 0.00 0.00 0.00 0.00 0.00 0.00 0.00 0.01
MSLP
1026.05 1026.54 1026.96 1027.33 1027.64 1027.91 1028.18 1028.46 1028.77 1029.13 1029.52 1029.94 1030.34 1030.69 1030.95 1031.10 1031.13 1031.02 1030.81 1030.52 1030.17 1029.81 1029.44 1029.09 1028.74 1028.39 1028.02 1027.60 1027.14 1026.61 1026.03 1025.40 1024.72 1024.02 1023.28 1022.49 1021.66 1020.75
1026.23 1026.78 1027.25 1027.65 1027.98 1028.26 1028.51 1028.76 1029.04 1029.36 1029.71 1030.07 1030.43 1030.74 1030.97 1031.10 1031.11 1031.01 1030.81 1030.54 1030.22 1029.89 1029.57 1029.25 1028.95 1028.64 1028.31 1027.95 1027.52 1027.04 1026.49 1025.88 1025.22 1024.51 1023.77 1022.98 1022.13 1021.21
1026.34 1026.95 1027.48 1027.93 1028.29 1028.59 1028.85 1029.09 1029.34 1029.61 1029.91 1030.21 1030.51 1030.76 1030.94 1031.03 1031.03 1030.92 1030.72 1030.47 1030.17 1029.88 1029.59 1029.32 1029.06 1028.80 1028.52 1028.20 1027.82 1027.37 1026.86 1026.29 1025.66 1024.97 1024.24 1023.46 1022.63 1021.73
1026.35 1027.02 1027.61 1028.12 1028.53 1028.87 1029.14 1029.38 1029.61 1029.85 1030.09 1030.33 1030.55 1030.74 1030.87 1030.91 1030.88 1030.75 1030.56 1030.32 1030.06 1029.80 1029.55 1029.31 1029.10 1028.87 1028.63 1028.35 1028.02 1027.62 1027.15 1026.61 1026.02 1025.36 1024.67 1023.91 1023.11 1022.26
1026.25 1026.98 1027.63 1028.20 1028.67 1029.04 1029.35 1029.59 1029.81 1030.01 1030.20 1030.38 1030.54 1030.67 1030.74 1030.75 1030.68 1030.56 1030.37 1030.15 1029.92 1029.69 1029.48 1029.28 1029.09 1028.90 1028.69 1028.44 1028.14 1027.77 1027.34 1026.84 1026.28 1025.67 1025.01 1024.30 1023.54 1022.73
1026.06 1026.84 1027.55 1028.17 1028.69 1029.10 1029.43 1029.69 1029.90 1030.07 1030.22 1030.35 1030.45 1030.53 1030.56 1030.54 1030.47 1030.35 1030.18 1029.99 1029.79 1029.60 1029.42 1029.24 1029.08 1028.91 1028.71 1028.48 1028.20 1027.86 1027.45 1026.99 1026.46 1025.89 1025.26 1024.59 1023.88 1023.12
1025.83 1026.65 1027.39 1028.05 1028.61 1029.05 1029.40 1029.66 1029.85 1030.00 1030.12 1030.21 1030.28 1030.32 1030.33 1030.31 1030.24 1030.14 1030.01 1029.86 1029.70 1029.54 1029.39 1029.23 1029.08 1028.92 1028.73 1028.50 1028.23 1027.90 1027.52 1027.08 1026.58 1026.04 1025.45 1024.82 1024.15 1023.44
1025.62 1026.44 1027.20 1027.87 1028.44 1028.89 1029.24 1029.50 1029.68 1029.81 1029.90 1029.97 1030.02 1030.06 1030.07 1030.06 1030.02 1029.96 1029.87 1029.77 1029.65 1029.52 1029.39 1029.26 1029.11 1028.94 1028.75 1028.52 1028.25 1027.93 1027.56 1027.14 1026.67 1026.16 1025.60 1025.00 1024.36 1023.69
1025.44 1026.26 1027.01 1027.66 1028.21 1028.65 1028.98 1029.22 1029.38 1029.50 1029.58 1029.64 1029.69 1029.73 1029.77 1029.79 1029.80 1029.79 1029.75 1029.70 1029.62 1029.53 1029.42 1029.29 1029.14 1028.97 1028.77 1028.54 1028.27 1027.95 1027.60 1027.20 1026.76 1026.27 1025.75 1025.18 1024.57 1023.92
1025.31 1026.09 1026.81 1027.43 1027.94 1028.34 1028.63 1028.84 1028.99 1029.09 1029.16 1029.23 1029.30 1029.37 1029.45 1029.52 1029.58 1029.62 1029.64 1029.63 1029.60 1029.53 1029.44 1029.32 1029.17 1028.99 1028.79 1028.56 1028.29 1027.99 1027.66 1027.29 1026.88 1026.42 1025.93 1025.38 1024.80 1024.17
1025.19 1025.93 1026.59 1027.16 1027.61 1027.96 1028.22 1028.40 1028.52 1028.61 1028.69 1028.78 1028.87 1028.98 1029.10 1029.22 1029.34 1029.43 1029.50 1029.54 1029.54 1029.50 1029.42 1029.31 1029.16 1028.99 1028.79 1028.57 1028.32 1028.04 1027.74 1027.40 1027.03 1026.61 1026.15 1025.64 1025.08 1024.47
1025.03 1025.72 1026.33 1026.84 1027.24 1027.54 1027.75 1027.90 1028.01 1028.10 1028.19 1028.29 1028.42 1028.57 1028.74 1028.91 1029.07 1029.21 1029.32 1029.39 1029.42 1029.40 1029.34 1029.24 1029.11 1028.95 1028.77 1028.56 1028.34 1028.09 1027.83 1027.53 1027.20 1026.83 1026.41 1025.93 1025.40 1024.82
1024.80 1025.44 1025.99 1026.44 1026.80 1027.05 1027.23 1027.36 1027.46 1027.56 1027.67 1027.80 1027.96 1028.15 1028.35 1028.56 1028.76 1028.93 1029.08 1029.18 1029.23 1029.23 1029.19 1029.12 1029.01 1028.87 1028.71 1028.53 1028.34 1028.13 1027.91 1027.65 1027.36 1027.04 1026.66 1026.22 1025.73 1025.19
1024.44 1025.05 1025.56 1025.97 1026.29 1026.52 1026.68 1026.80 1026.91 1027.02 1027.15 1027.31 1027.50 1027.72 1027.95 1028.18 1028.41 1028.61 1028.77 1028.89 1028.97 1029.00 1028.98 1028.93 1028.85 1028.75 1028.62 1028.48 1028.32 1028.15 1027.95 1027.74 1027.49 1027.20 1026.87 1026.47 1026.03 1025.52
1023.96 1024.55 1025.03 1025.42 1025.72 1025.94 1026.10 1026.23 1026.36 1026.49 1026.64 1026.83 1027.04 1027.27 1027.52 1027.77 1028.01 1028.22 1028.40 1028.55 1028.64 1028.70 1028.72 1028.71 1028.66 1028.59 1028.50 1028.39 1028.27 1028.12 1027.96 1027.77 1027.54 1027.28 1026.98 1026.63 1026.23 1025.77
1023.38 1023.94 1024.42 1024.80 1025.10 1025.33 1025.51 1025.67 1025.81 1025.97 1026.15 1026.35 1026.58 1026.83 1027.08 1027.34 1027.58 1027.80 1027.99 1028.15 1028.28 1028.37 1028.43 1028.45 1028.45 1028.43 1028.37 1028.29 1028.19 1028.06 1027.91 1027.72 1027.51 1027.26 1026.98 1026.66 1026.29 1025.89
1022.71 1023.27 1023.75 1024.15 1024.47 1024.72 1024.93 1025.11 1025.29 1025.47 1025.67 1025.89 1026.13 1026.38 1026.64 1026.89 1027.13 1027.35 1027.56 1027.74 1027.89 1028.02 1028.12 1028.19 1028.24 1028.25 1028.23 1028.18 1028.09 1027.96 1027.80 1027.60 1027.38 1027.13 1026.85 1026.55 1026.22 1025.87
1022.01 1022.58 1023.07 1023.48 1023.83 1024.11 1024.36 1024.58 1024.79 1025.00 1025.22 1025.45 1025.70 1025.95 1026.20 1026.44 1026.68 1026.91 1027.12 1027.32 1027.50 1027.67 1027.81 1027.94 1028.03 1028.08 1028.09 1028.06 1027.97 1027.83 1027.65 1027.43 1027.19 1026.91 1026.63 1026.33 1026.03 1025.71
1021.31 1021.87 1022.38 1022.82 1023.20 1023.52 1023.81 1024.07 1024.31 1024.55 1024.79 1025.04 1025.28 1025.53 1025.77 1026.01 1026.25 1026.47 1026.70 1026.92 1027.13 1027.33 1027.52 1027.68 1027.82 1027.91 1027.95 1027.92 1027.84 1027.69 1027.49 1027.24 1026.96 1026.66 1026.35 1026.05 1025.75 1025.45
1020.62 1021.19 1021.71 1022.17 1022.58 1022.94 1023.27 1023.57 1023.85 1024.11 1024.38 1024.63 1024.89 1025.14 1025.38 1025.61 1025.85 1026.08 1026.31 1026.54 1026.78 1027.01 1027.23 1027.43 1027.60 1027.72 1027.79 1027.78 1027.69 1027.53 1027.31 1027.04 1026.73 1026.40 1026.06 1025.74 1025.44 1025.15
1019.94 1020.51 1021.03 1021.52 1021.96 1022.35 1022.71 1023.05 1023.37 1023.67 1023.96 1024.24 1024.50 1024.76 1025.01 1025.25 1025.48 1025.71 1025.95 1026.20 1026.45 1026.70 1026.95 1027.18 1027.37 1027.51 1027.60 1027.60 1027.52 1027.37 1027.14 1026.85 1026.51 1026.16 1025.80 1025.46 1025.14 1024.85
1019.25 1019.81 1020.34 1020.83 1021.29 1021.72 1022.12 1022.49 1022.85 1023.19 1023.51 1023.82 1024.11 1024.39 1024.65 1024.90 1025.14 1025.38 1025.62 1025.87 1026.13 1026.39 1026.65 1026.89 1027.10 1027.26 1027.36 1027.39 1027.32 1027.18 1026.95 1026.66 1026.32 1025.96 1025.59 1025.22 1024.89 1024.58
1018.52 1019.06 1019.59 1020.08 1020.56 1021.01 1021.44 1021.85 1022.25 1022.63 1023.00 1023.35 1023.69 1024.00 1024.28 1024.55 1024.81 1025.06 1025.30 1025.55 1025.81 1026.07 1026.32 1026.56 1026.78 1026.95 1027.07 1027.11 1027.07 1026.94 1026.74 1026.46 1026.14 1025.78 1025.40 1025.03 1024.67 1024.34
Thickness
5573 5567 5560 5552 5545 5538 5533 5527 5523 5520 5514 5501 5489 5478 5470 5463 5456 5451 5446 5441 5435 5430 5425 5420 5415 5409 5403 5396 5389 5381 5374 5365 5356 5348 5340 5332 5327 5322
5562 5556 5548 5541 5533 5525 5519 5513 5508 5504 5500 5489 5478 5467 5458 5451 5444 5439 5434 5428 5423 5416 5410 5405 5399 5392 5384 5377 5369 5361 5352 5342 5333 5324 5317 5310 5304 5299
5550 5544 5537 5529 5521 5514 5507 5500 5493 5487 5483 5474 5463 5454 5446 5439 5433 5427 5421 5416 5410 5403 5396 5389 5382 5374 5366 5357 5349 5340 5330 5320 5311 5303 5295 5289 5283 5279
5540 5533 5525 5517 5510 5502 5495 5487 5480 5472 5466 5459 5451 5442 5434 5428 5421 5415 5409 5403 5397 5389 5381 5373 5365 5357 5348 5338 5329 5319 5309 5299 5291 5283 5276 5270 5265 5260
5530 5522 5514 5506 5498 5490 5482 5475 5467 5458 5450 5443 5437 5430 5423 5416 5410 5404 5397 5390 5383 5376 5367 5359 5350 5340 5330 5321 5310 5299 5290 5282 5274 5265 5257 5251 5247 5243
5517 5510 5502 5495 5486 5478 5470 5462 5453 5445 5437 5430 5424 5418 5412 5405 5398 5393 5387 5379 5372 5364 5353 5343 5335 5324 5314 5304 5294 5283 5273 5263 5255 5247 5241 5236 5232 5229
5503 5496 5488 5481 5473 5465 5457 5449 5441 5433 5425 5418 5413 5407 5400 5392 5385 5378 5372 5366 5360 5351 5340 5329 5321 5312 5299 5288 5276 5266 5256 5247 5239 5232 5226 5222 5219 5217
5491 5482 5474 5466 5458 5450 5443 5435 5429 5421 5414 5407 5401 5394 5386 5378 5370 5361 5355 5351 5347 5340 5327 5317 5305 5294 5283 5272 5261 5251 5242 5233 5225 5218 5213 5209 5207 5206
5479 5471 5461 5453 5445 5437 5429 5422 5414 5407 5401 5395 5388 5380 5372 5364 5356 5348 5339 5330 5323 5316 5308 5304 5293 5281 5269 5257 5247 5237 5228 5219 5212 5206 5202 5199 5197 5196
5467 5459 5450 5441 5433 5425 5417 5409 5402 5394 5388 5381 5374 5366 5357 5348 5340 5332 5323 5315 5307 5298 5288 5285 5281 5270 5257 5246 5235 5225 5215 5207 5200 5195 5191 5188 5187 5187
5453 5445 5437 5429 5420 5412 5405 5397 5389 5382 5374 5366 5359 5351 5343 5334 5325 5317 5308 5300 5296 5288 5274 5264 5262 5257 5250 5238 5225 5214 5204 5196 5189 5184 5180 5178 5178 5178
5438 5430 5423 5416 5408 5401 5393 5386 5378 5370 5361 5353 5344 5336 5328 5320 5310 5301 5292 5283 5276 5271 5261 5248 5242 5234 5234 5230 5215 5204 5195 5187 5179 5173 5170 5168 5168 5168
5426 5419 5411 5404 5396 5388 5381 5374 5366 5357 5348 5339 5331 5323 5314 5305 5296 5286 5276 5266 5258 5251 5242 5230 5224 5215 5207 5207 5205 5194 5184 5177 5171 5165 5161 5158 5157 5156
5415 5407 5399 5391 5383 5376 5368 5360 5352 5342 5334 5325 5318 5310 5301 5292 5282 5272 5262 5252 5243 5234 5225 5214 5206 5198 5191 5188 5188 5184 5174 5166 5160 5155 5152 5150 5148 5147
5401 5394 5385 5377 5369 5362 5354 5346 5337 5328 5320 5312 5305 5297 5287 5277 5267 5258 5249 5239 5231 5222 5213 5202 5192 5184 5175 5170 5170 5167 5163 5158 5150 5145 5141 5140 5139 5139
5385 5377 5370 5362 5354 5347 5339 5330 5322 5315 5307 5300 5291 5282 5272 5262 5253 5244 5236 5227 5220 5213 5202 5192 5182 5173 5167 5161 5155 5152 5148 5143 5140 5135 5131 5130 5130 5129
5371 5363 5355 5347 5340 5332 5324 5316 5307 5299 5291 5284 5275 5266 5257 5248 5240 5230 5221 5214 5207 5201 5193 5182 5173 5164 5157 5151 5147 5144 5139 5134 5129 5125 5123 5122 5122 5121
5357 5351 5344 5336 5329 5321 5313 5304 5295 5287 5279 5270 5261 5252 5244 5236 5227 5218 5210 5202 5196 5189 5182 5173 5164 5158 5153 5148 5139 5135 5130 5125 5120 5116 5114 5113 5115 5114
5345 5340 5333 5326 5318 5310 5302 5293 5284 5275 5264 5256 5248 5239 5230 5222 5214 5207 5199 5191 5183 5177 5169 5161 5153 5146 5144 5143 5136 5125 5120 5116 5111 5109 5107 5105 5105 5106
5334 5328 5322 5314 5306 5298 5289 5280 5271 5261 5251 5243 5234 5225 5217 5209 5201 5194 5187 5179 5172 5164 5157 5150 5143 5136 5130 5127 5122 5116 5110 5106 5103 5101 5100 5098 5097 5098
5322 5316 5309 5301 5293 5284 5275 5266 5257 5248 5239 5229 5221 5212 5203 5195 5188 5181 5174 5166 5158 5152 5147 5141 5133 5123 5116 5111 5108 5108 5104 5098 5094 5091 5091 5091 5092 5092
5310 5302 5294 5286 5278 5269 5260 5251 5242 5234 5225 5216 5208 5199 5191 5183 5177 5169 5162 5156 5148 5143 5136 5129 5120 5113 5109 5105 5103 5101 5096 5091 5087 5085 5083 5082 5081 5082
5295 5288 5280 5271 5262 5254 5246 5237 5229 5221 5213 5204 5196 5188 5179 5171 5165 5158 5151 5143 5137 5131 5124 5118 5112 5106 5101 5097 5093 5089 5085 5082 5080 5079 5078 5076 5073 5072